| time (UTC) | temp F | wind direction | speed MPH | gust MPH | rain 1hr in | rain 24hr in | rain mn in | humidity % | barometer mb |
| 20260831072655 | 52 | 332 | 0.0 | 0.0 | 0.00 | 0.00 | 0.00 | 99 | 1019.2 |
| 20260831072151 | 52 | 332 | 0.0 | 0.0 | 0.00 | 0.00 | 0.00 | 99 | 1019.2 |
| 20260831071650 | 51 | 333 | 0.0 | 0.0 | 0.00 | 0.00 | 0.00 | 99 | 1019.2 |
| 20260831071145 | 51 | 332 | 0.0 | 0.0 | 0.00 | 0.00 | 0.00 | 99 | 1019.1 |
| 20260831070644 | 52 | 332 | 0.0 | 0.0 | 0.00 | 0.00 | 0.00 | 99 | 1019.2 |
| 20260831070133 | 52 | 333 | 0.0 | 0.0 | 0.00 | 0.00 | 0.00 | 99 | 1019.0 |
| 20260831065632 | 52 | 333 | 0.0 | 0.0 | 0.00 | 0.00 | 0.00 | 99 | 1019.3 |
| 20260831065131 | 53 | 318 | 0.0 | 0.0 | 0.00 | 0.00 | 0.00 | 99 | 1019.3 |
| 20260831064626 | 53 | 343 | 0.0 | 0.0 | 0.00 | 0.00 | 0.00 | 99 | 1019.3 |
| 20260831064122 | 52 | 343 | 0.0 | 0.0 | 0.00 | 0.00 | 0.00 | 99 | 1019.4 |
| 20260831063618 | 53 | 343 | 0.0 | 0.0 | 0.00 | 0.00 | 0.00 | 99 | 1019.5 |
| 20260831063113 | 53 | 343 | 0.0 | 0.0 | 0.00 | 0.00 | 0.00 | 99 | 1019.5 |
| 20260831062612 | 53 | 343 | 0.0 | 0.0 | 0.00 | 0.00 | 0.00 | 99 | 1019.4 |
| 20260831062107 | 53 | 343 | 0.0 | 0.0 | 0.00 | 0.00 | 0.00 | 99 | 1019.6 |
| 20260831061604 | 53 | 343 | 0.0 | 0.0 | 0.00 | 0.00 | 0.00 | 99 | 1019.6 |
| 20260831061101 | 53 | 343 | 0.0 | 0.0 | 0.00 | 0.00 | 0.00 | 99 | 1019.4 |
| 20260831060556 | 53 | 343 | 0.0 | 0.0 | 0.00 | 0.00 | 0.00 | 99 | 1019.5 |
| 20260831060051 | 53 | 343 | 0.0 | 0.0 | 0.00 | 0.00 | 0.00 | 99 | 1019.6 |
| 20260831055545 | 53 | 343 | 0.0 | 0.0 | 0.00 | 0.00 | 0.00 | 99 | 1019.8 |
| 20260831055041 | 53 | 343 | 0.0 | 0.0 | 0.00 | 0.00 | 0.00 | 99 | 1019.8 |
| 20260831054540 | 54 | 343 | 0.0 | 0.0 | 0.00 | 0.00 | 0.00 | 99 | 1019.7 |
| 20260831054040 | 54 | 343 | 0.0 | 0.0 | 0.00 | 0.00 | 0.00 | 99 | 1019.6 |
| 20260831053538 | 54 | 343 | 0.0 | 0.0 | 0.00 | 0.00 | 0.00 | 99 | 1019.9 |
| 20260831053039 | 54 | 343 | 0.0 | 0.0 | 0.00 | 0.00 | 0.00 | 98 | 1019.6 |
| 20260831052537 | 55 | 343 | 0.0 | 0.0 | 0.00 | 0.00 | 0.00 | 98 | 1019.7 |
| 20260831052037 | 55 | 343 | 0.0 | 0.0 | 0.00 | 0.00 | 0.00 | 97 | 1019.8 |
| 20260831051535 | 55 | 343 | 0.0 | 0.0 | 0.00 | 0.00 | 0.00 | 97 | 1020.0 |
| 20260831051030 | 55 | 343 | 0.0 | 0.0 | 0.00 | 0.00 | 0.00 | 96 | 1019.8 |
| 20260831050529 | 56 | 343 | 0.0 | 0.0 | 0.00 | 0.00 | 0.00 | 97 | 1020.1 |
| 20260831050027 | 56 | 343 | 0.0 | 0.0 | 0.00 | 0.00 | 0.00 | 96 | 1019.9 |
| 20260831045522 | 56 | 343 | 0.0 | 0.0 | 0.00 | 0.00 | 0.00 | 96 | 1020.1 |
| 20260831045017 | 56 | 343 | 0.0 | 0.0 | 0.00 | 0.00 | 0.00 | 96 | 1020.0 |
| 20260831044513 | 56 | 343 | 0.0 | 0.0 | 0.00 | 0.00 | 0.00 | 95 | 1020.1 |
| 20260831044008 | 56 | 343 | 0.0 | 0.0 | 0.00 | 0.00 | 0.00 | 95 | 1020.1 |
| 20260831043507 | 57 | 343 | 0.0 | 0.0 | 0.00 | 0.00 | 0.00 | 95 | 1020.0 |
| 20260831043003 | 57 | 344 | 0.0 | 0.0 | 0.00 | 0.00 | 0.00 | 95 | 1020.1 |
| 20260831042502 | 57 | 343 | 0.0 | 0.0 | 0.00 | 0.00 | 0.00 | 95 | 1020.3 |
| 20260831041957 | 57 | 343 | 0.0 | 0.0 | 0.00 | 0.00 | 0.00 | 94 | 1020.3 |
| 20260831041452 | 57 | 343 | 0.0 | 0.0 | 0.00 | 0.00 | 0.00 | 94 | 1020.4 |
| 20260831040951 | 57 | 343 | 0.0 | 0.0 | 0.00 | 0.00 | 0.00 | 93 | 1020.2 |
| 20260831040446 | 58 | 343 | 0.0 | 0.0 | 0.00 | 0.00 | 0.00 | 92 | 1020.5 |
| 20260831035943 | 58 | 344 | 0.0 | 0.0 | 0.00 | 0.00 | 0.00 | 92 | 1020.2 |
| 20260831035438 | 58 | 344 | 0.0 | 0.0 | 0.00 | 0.00 | 0.00 | 92 | 1020.1 |
| 20260831034933 | 58 | 344 | 0.0 | 0.0 | 0.00 | 0.00 | 0.00 | 90 | 1019.9 |
| 20260831034428 | 59 | 344 | 0.0 | 0.0 | 0.00 | 0.00 | 0.00 | 90 | 1019.9 |
| 20260831033923 | 59 | 344 | 0.0 | 0.0 | 0.00 | 0.00 | 0.00 | 90 | 1019.9 |
| 20260831033418 | 60 | 344 | 0.0 | 0.0 | 0.00 | 0.00 | 0.00 | 89 | 1020.0 |
| 20260831032914 | 60 | 343 | 0.0 | 0.0 | 0.00 | 0.00 | 0.00 | 88 | 1020.2 |
| 20260831032413 | 60 | 348 | 0.0 | 0.0 | 0.00 | 0.00 | 0.00 | 85 | 1020.1 |
| 20260831031908 | 61 | 341 | 0.0 | 0.0 | 0.00 | 0.00 | 0.00 | 89 | 1020.1 |
| 20260831031403 | 61 | 341 | 0.0 | 0.0 | 0.00 | 0.00 | 0.00 | 88 | 1020.0 |
| 20260831030857 | 61 | 341 | 0.0 | 0.0 | 0.00 | 0.00 | 0.00 | 87 | 1020.1 |
| 20260831030356 | 61 | 341 | 0.0 | 0.0 | 0.00 | 0.00 | 0.00 | 88 | 1020.0 |
| 20260831025855 | 62 | 339 | 0.0 | 0.0 | 0.00 | 0.00 | 0.00 | 88 | 1019.9 |
| 20260831025355 | 62 | 339 | 0.0 | 0.0 | 0.00 | 0.00 | 0.00 | 86 | 1019.9 |
| 20260831024850 | 62 | 338 | 0.0 | 0.0 | 0.00 | 0.00 | 0.00 | 86 | 1019.9 |
| 20260831024350 | 62 | 339 | 0.0 | 0.0 | 0.00 | 0.00 | 0.00 | 86 | 1020.2 |
| 20260831023849 | 62 | 339 | 0.0 | 0.0 | 0.00 | 0.00 | 0.00 | 86 | 1020.1 |
| 20260831023347 | 63 | 338 | 0.0 | 0.0 | 0.00 | 0.00 | 0.00 | 84 | 1019.9 |
| 20260831022843 | 63 | 339 | 0.0 | 0.0 | 0.00 | 0.00 | 0.00 | 84 | 1020.0 |
| 20260831022342 | 63 | 338 | 0.0 | 0.0 | 0.00 | 0.00 | 0.00 | 84 | 1019.9 |
| 20260831021836 | 63 | 338 | 0.0 | 0.0 | 0.00 | 0.00 | 0.00 | 81 | 1020.1 |
| 20260831021331 | 63 | 338 | 0.0 | 0.0 | 0.00 | 0.00 | 0.00 | 81 | 1019.8 |
| 20260831020827 | 63 | 349 | 0.0 | 0.0 | 0.00 | 0.00 | 0.00 | 78 | 1019.9 |
| 20260831020326 | 64 | 343 | 0.0 | 0.0 | 0.00 | 0.00 | 0.00 | 80 | 1019.7 |
| 20260831015822 | 64 | 338 | 0.0 | 0.0 | 0.00 | 0.00 | 0.00 | 79 | 1019.9 |
| 20260831015318 | 64 | 337 | 0.0 | 0.0 | 0.00 | 0.00 | 0.00 | 77 | 1020.1 |
| 20260831014817 | 65 | 341 | 1.0 | 1.0 | 0.00 | 0.00 | 0.00 | 76 | 1020.1 |
| 20260831014312 | 65 | 328 | 0.0 | 0.0 | 0.00 | 0.00 | 0.00 | 74 | 1019.8 |
| 20260831013808 | 65 | 328 | 0.0 | 0.0 | 0.00 | 0.00 | 0.00 | 76 | 1020.1 |
| 20260831013308 | 64 | 341 | 0.0 | 0.0 | 0.00 | 0.00 | 0.00 | 75 | 1020.1 |
| 20260831012803 | 65 | 329 | 0.0 | 0.0 | 0.00 | 0.00 | 0.00 | 77 | 1020.1 |
| 20260831012259 | 64 | 334 | 0.0 | 0.0 | 0.00 | 0.00 | 0.00 | 79 | 1020.0 |
| 20260831011757 | 64 | 324 | 0.0 | 0.0 | 0.00 | 0.00 | 0.00 | 78 | 1020.2 |
| 20260831011253 | 65 | 334 | 0.0 | 0.0 | 0.00 | 0.00 | 0.00 | 76 | 1020.1 |
| 20260831010748 | 65 | 326 | 0.0 | 1.0 | 0.00 | 0.00 | 0.00 | 75 | 1020.3 |
| 20260831010243 | 66 | 349 | 0.0 | 0.0 | 0.00 | 0.00 | 0.00 | 73 | 1020.1 |
| 20260831005739 | 66 | 319 | 0.0 | 0.0 | 0.00 | 0.00 | 0.00 | 72 | 1020.1 |
| 20260831005234 | 66 | 326 | 0.0 | 0.0 | 0.00 | 0.00 | 0.00 | 76 | 1020.3 |
| 20260831004729 | 66 | 335 | 2.0 | 3.0 | 0.00 | 0.00 | 0.00 | 71 | 1020.2 |
| 20260831004225 | 67 | 327 | 0.0 | 0.0 | 0.00 | 0.00 | 0.00 | 73 | 1020.2 |
| 20260831003720 | 67 | 344 | 0.0 | 0.0 | 0.00 | 0.00 | 0.00 | 68 | 1020.5 |
| 20260831003217 | 67 | 324 | 0.0 | 0.0 | 0.00 | 0.00 | 0.00 | 70 | 1020.4 |
| 20260831002715 | 67 | 337 | 3.0 | 3.0 | 0.00 | 0.00 | 0.00 | 67 | 1020.5 |
| 20260831002210 | 67 | 347 | 0.0 | 1.0 | 0.00 | 0.00 | 0.00 | 70 | 1020.6 |
| 20260831001706 | 67 | 329 | 0.0 | 0.0 | 0.00 | 0.00 | 0.00 | 74 | 1020.5 |
| 20260831001201 | 67 | 331 | 0.0 | 0.0 | 0.00 | 0.00 | 0.00 | 75 | 1020.4 |
| 20260831000657 | 66 | 304 | 2.0 | 2.0 | 0.00 | 0.00 | 0.00 | 72 | 1020.7 |
| 20260831000152 | 67 | 349 | 0.0 | 0.0 | 0.00 | 0.00 | 0.00 | 70 | 1020.4 |
| 20260830235651 | 67 | 351 | 0.0 | 0.0 | 0.00 | 0.00 | 0.00 | 71 | 1020.4 |
| 20260830235146 | 67 | 341 | 1.0 | 1.0 | 0.00 | 0.00 | 0.00 | 72 | 1020.5 |
| 20260830234641 | 67 | 10 | 3.0 | 3.0 | 0.00 | 0.00 | 0.00 | 70 | 1020.6 |
| 20260830234137 | 67 | 336 | 0.0 | 0.0 | 0.00 | 0.00 | 0.00 | 70 | 1020.6 |
| 20260830233632 | 68 | 345 | 0.0 | 1.0 | 0.00 | 0.00 | 0.00 | 70 | 1020.6 |
| 20260830233127 | 67 | 334 | 0.0 | 0.0 | 0.00 | 0.00 | 0.00 | 70 | 1020.6 |
| 20260830232624 | 67 | 323 | 0.0 | 0.0 | 0.00 | 0.00 | 0.00 | 72 | 1020.7 |
| 20260830232119 | 67 | 323 | 0.0 | 0.0 | 0.00 | 0.00 | 0.00 | 69 | 1020.7 |
| 20260830231615 | 67 | 331 | 0.0 | 0.0 | 0.00 | 0.00 | 0.00 | 69 | 1021.0 |
| 20260830231114 | 67 | 324 | 0.0 | 1.0 | 0.00 | 0.00 | 0.00 | 70 | 1020.8 |
| 20260830230610 | 67 | 310 | 1.0 | 1.0 | 0.00 | 0.00 | 0.00 | 69 | 1020.7 |
| 20260830230104 | 67 | 304 | 0.0 | 0.0 | 0.00 | 0.00 | 0.00 | 68 | 1020.7 |
| 20260830225559 | 68 | 15 | 2.0 | 3.0 | 0.00 | 0.00 | 0.00 | 67 | 1020.9 |
| 20260830225059 | 68 | 153 | 1.0 | 1.0 | 0.00 | 0.00 | 0.00 | 65 | 1020.9 |
| 20260830224558 | 68 | 324 | 0.0 | 0.0 | 0.00 | 0.00 | 0.00 | 67 | 1020.8 |
| 20260830224054 | 68 | 295 | 1.0 | 1.0 | 0.00 | 0.00 | 0.00 | 65 | 1021.0 |
| 20260830223551 | 68 | 315 | 0.0 | 0.0 | 0.00 | 0.00 | 0.00 | 67 | 1020.8 |
| 20260830223045 | 67 | 198 | 2.0 | 2.0 | 0.00 | 0.00 | 0.00 | 67 | 1020.8 |
| 20260830222540 | 68 | 307 | 0.0 | 0.0 | 0.00 | 0.00 | 0.00 | 69 | 1020.8 |
| 20260830222036 | 68 | 310 | 0.0 | 0.0 | 0.00 | 0.00 | 0.00 | 64 | 1020.8 |
| 20260830221532 | 68 | 303 | 0.0 | 1.0 | 0.00 | 0.00 | 0.00 | 67 | 1021.0 |
| 20260830221028 | 67 | 331 | 0.0 | 0.0 | 0.00 | 0.00 | 0.00 | 69 | 1021.1 |
| 20260830220527 | 67 | 330 | 0.0 | 0.0 | 0.00 | 0.00 | 0.00 | 69 | 1021.1 |
| 20260830220026 | 67 | 276 | 1.0 | 2.0 | 0.00 | 0.00 | 0.00 | 70 | 1021.1 |
| 20260830215520 | 67 | 343 | 0.0 | 1.0 | 0.00 | 0.00 | 0.00 | 68 | 1021.1 |
| 20260830215015 | 67 | 341 | 0.0 | 0.0 | 0.00 | 0.00 | 0.00 | 68 | 1021.1 |
| 20260830214510 | 66 | 270 | 0.0 | 0.0 | 0.00 | 0.00 | 0.00 | 70 | 1021.0 |
| 20260830214004 | 66 | 338 | 0.0 | 1.0 | 0.00 | 0.00 | 0.00 | 69 | 1021.4 |
| 20260830213459 | 66 | 306 | 1.0 | 1.0 | 0.00 | 0.00 | 0.00 | 70 | 1021.2 |
| 20260830212954 | 66 | 9 | 2.0 | 2.0 | 0.00 | 0.00 | 0.00 | 69 | 1021.2 |
| 20260830212450 | 66 | 342 | 0.0 | 0.0 | 0.00 | 0.00 | 0.00 | 71 | 1021.3 |
| 20260830211949 | 66 | 332 | 0.0 | 0.0 | 0.00 | 0.00 | 0.00 | 74 | 1021.3 |
| 20260830211444 | 66 | 3 | 0.0 | 0.0 | 0.00 | 0.00 | 0.00 | 68 | 1021.4 |
| 20260830210940 | 66 | 339 | 2.0 | 2.0 | 0.00 | 0.00 | 0.00 | 68 | 1021.4 |
| 20260830210439 | 67 | 352 | 1.0 | 2.0 | 0.00 | 0.00 | 0.00 | 69 | 1021.2 |
| 20260830205937 | 67 | 305 | 0.0 | 0.0 | 0.00 | 0.00 | 0.00 | 69 | 1021.3 |
| 20260830205436 | 66 | 326 | 0.0 | 1.0 | 0.00 | 0.00 | 0.00 | 74 | 1021.2 |
| 20260830204932 | 66 | 337 | 0.0 | 0.0 | 0.00 | 0.00 | 0.00 | 68 | 1021.3 |
| 20260830204431 | 67 | 317 | 0.0 | 0.0 | 0.00 | 0.00 | 0.00 | 70 | 1021.3 |
| 20260830203926 | 67 | 327 | 0.0 | 0.0 | 0.00 | 0.00 | 0.00 | 73 | 1021.2 |
| 20260830203422 | 67 | 330 | 1.0 | 1.0 | 0.00 | 0.00 | 0.00 | 70 | 1021.2 |
| 20260830202921 | 66 | 355 | 0.0 | 0.0 | 0.00 | 0.00 | 0.00 | 72 | 1021.3 |
| 20260830202417 | 66 | 257 | 0.0 | 1.0 | 0.00 | 0.00 | 0.00 | 70 | 1021.3 |
| 20260830201913 | 67 | 202 | 2.0 | 2.0 | 0.00 | 0.00 | 0.00 | 69 | 1021.4 |
| 20260830201412 | 66 | 339 | 0.0 | 0.0 | 0.00 | 0.00 | 0.00 | 73 | 1021.3 |
| 20260830200908 | 66 | 40 | 2.0 | 3.0 | 0.00 | 0.00 | 0.00 | 70 | 1021.3 |
| 20260830200407 | 66 | 167 | 0.0 | 2.0 | 0.00 | 0.00 | 0.00 | 73 | 1021.3 |
| 20260830195857 | 66 | 152 | 2.0 | 2.0 | 0.00 | 0.00 | 0.00 | 71 | 1021.5 |
| 20260830195356 | 66 | 159 | 3.0 | 3.0 | 0.00 | 0.00 | 0.00 | 70 | 1021.5 |
| 20260830194854 | 67 | 248 | 3.0 | 5.0 | 0.00 | 0.00 | 0.00 | 69 | 1021.4 |
| 20260830194348 | 66 | 91 | 5.0 | 5.0 | 0.00 | 0.00 | 0.00 | 70 | 1021.5 |
| 20260830193843 | 66 | 203 | 0.0 | 1.0 | 0.00 | 0.00 | 0.00 | 71 | 1021.3 |
| 20260830193337 | 66 | 99 | 2.0 | 3.0 | 0.00 | 0.00 | 0.00 | 71 | 1021.4 |
| 20260830192833 | 65 | 313 | 0.0 | 0.0 | 0.00 | 0.00 | 0.00 | 69 | 1021.6 |
| 20260830192333 | 65 | 355 | 0.0 | 1.0 | 0.00 | 0.00 | 0.00 | 73 | 1021.5 |
| 20260830191829 | 64 | 317 | 0.0 | 0.0 | 0.00 | 0.00 | 0.00 | 75 | 1021.6 |
| 20260830191328 | 64 | 338 | 0.0 | 0.0 | 0.00 | 0.00 | 0.00 | 75 | 1021.6 |
| 20260830190824 | 64 | 320 | 0.0 | 1.0 | 0.00 | 0.00 | 0.00 | 81 | 1021.8 |
| 20260830190324 | 64 | 316 | 0.0 | 0.0 | 0.00 | 0.00 | 0.00 | 75 | 1021.8 |
| 20260830185823 | 64 | 324 | 0.0 | 0.0 | 0.00 | 0.00 | 0.00 | 76 | 1021.6 |
| 20260830185318 | 63 | 299 | 0.0 | 0.0 | 0.00 | 0.00 | 0.00 | 74 | 1021.8 |
| 20260830184813 | 63 | 295 | 1.0 | 1.0 | 0.00 | 0.00 | 0.00 | 76 | 1021.8 |
| 20260830184312 | 63 | 356 | 0.0 | 1.0 | 0.00 | 0.00 | 0.00 | 74 | 1021.8 |
| 20260830183808 | 63 | 306 | 1.0 | 1.0 | 0.00 | 0.00 | 0.00 | 75 | 1021.7 |
| 20260830183307 | 63 | 212 | 2.0 | 2.0 | 0.00 | 0.00 | 0.00 | 75 | 1021.8 |
| 20260830182803 | 63 | 101 | 3.0 | 3.0 | 0.00 | 0.00 | 0.00 | 75 | 1021.8 |
| 20260830182258 | 63 | 207 | 3.0 | 3.0 | 0.00 | 0.00 | 0.00 | 75 | 1021.8 |
| 20260830181755 | 63 | 202 | 4.0 | 6.0 | 0.00 | 0.00 | 0.00 | 76 | 1021.6 |
| 20260830181250 | 63 | 143 | 3.0 | 5.0 | 0.00 | 0.00 | 0.00 | 75 | 1021.9 |
| 20260830180748 | 63 | 199 | 4.0 | 5.0 | 0.00 | 0.00 | 0.00 | 76 | 1022.0 |
| 20260830180243 | 63 | 218 | 4.0 | 6.0 | 0.00 | 0.00 | 0.00 | 74 | 1021.9 |
| 20260830175737 | 64 | 186 | 5.0 | 6.0 | 0.00 | 0.00 | 0.00 | 74 | 1021.8 |
| 20260830175233 | 63 | 185 | 1.0 | 3.0 | 0.00 | 0.00 | 0.00 | 75 | 1021.9 |
| 20260830174727 | 63 | 37 | 3.0 | 5.0 | 0.00 | 0.00 | 0.00 | 74 | 1021.7 |
| 20260830174223 | 63 | 196 | 6.0 | 7.0 | 0.00 | 0.00 | 0.00 | 74 | 1021.6 |
| 20260830173722 | 62 | 217 | 4.0 | 5.0 | 0.00 | 0.00 | 0.00 | 76 | 1021.6 |
| 20260830173218 | 62 | 192 | 5.0 | 6.0 | 0.00 | 0.00 | 0.00 | 75 | 1021.8 |
| 20260830172715 | 63 | 233 | 3.0 | 3.0 | 0.00 | 0.00 | 0.00 | 75 | 1021.9 |
| 20260830172211 | 63 | 168 | 2.0 | 3.0 | 0.00 | 0.00 | 0.00 | 75 | 1021.9 |
| 20260830171706 | 62 | 212 | 3.0 | 3.0 | 0.00 | 0.00 | 0.00 | 76 | 1021.8 |
| 20260830171201 | 62 | 143 | 2.0 | 5.0 | 0.00 | 0.00 | 0.00 | 78 | 1021.6 |
| 20260830170655 | 62 | 21 | 1.0 | 1.0 | 0.00 | 0.00 | 0.00 | 78 | 1022.0 |
| 20260830170154 | 61 | 218 | 1.0 | 2.0 | 0.00 | 0.00 | 0.00 | 79 | 1021.8 |
| 20260830165649 | 61 | 256 | 1.0 | 1.0 | 0.00 | 0.00 | 0.00 | 80 | 1021.9 |
| 20260830165145 | 61 | 323 | 1.0 | 1.0 | 0.00 | 0.00 | 0.00 | 81 | 1021.7 |
| 20260830164641 | 60 | 17 | 0.0 | 1.0 | 0.00 | 0.00 | 0.00 | 81 | 1021.9 |
| 20260830164137 | 60 | 322 | 1.0 | 1.0 | 0.00 | 0.00 | 0.00 | 81 | 1021.9 |
| 20260830163634 | 60 | 62 | 1.0 | 3.0 | 0.00 | 0.00 | 0.00 | 82 | 1021.9 |
| 20260830163133 | 60 | 356 | 1.0 | 2.0 | 0.00 | 0.00 | 0.00 | 81 | 1022.1 |
| 20260830162628 | 60 | 331 | 0.0 | 0.0 | 0.00 | 0.00 | 0.00 | 81 | 1021.9 |
| 20260830162124 | 60 | 347 | 1.0 | 1.0 | 0.00 | 0.00 | 0.00 | 80 | 1022.1 |
| 20260830161619 | 60 | 337 | 0.0 | 0.0 | 0.00 | 0.00 | 0.00 | 81 | 1022.2 |
| 20260830161113 | 59 | 346 | 0.0 | 0.0 | 0.00 | 0.00 | 0.00 | 81 | 1022.0 |
| 20260830160610 | 59 | 170 | 1.0 | 2.0 | 0.00 | 0.00 | 0.00 | 81 | 1021.9 |
| 20260830160104 | 60 | 89 | 3.0 | 3.0 | 0.00 | 0.00 | 0.00 | 81 | 1022.0 |
| 20260830155601 | 59 | 219 | 3.0 | 5.0 | 0.00 | 0.00 | 0.00 | 81 | 1022.1 |
| 20260830155056 | 59 | 84 | 3.0 | 3.0 | 0.00 | 0.00 | 0.00 | 82 | 1021.9 |
| 20260830154551 | 59 | 308 | 0.0 | 1.0 | 0.00 | 0.00 | 0.00 | 82 | 1021.9 |
| 20260830154047 | 59 | 14 | 0.0 | 1.0 | 0.00 | 0.00 | 0.00 | 82 | 1021.7 |
| 20260830153543 | 59 | 85 | 3.0 | 3.0 | 0.00 | 0.00 | 0.00 | 83 | 1022.0 |
| 20260830153043 | 59 | 273 | 0.0 | 1.0 | 0.00 | 0.00 | 0.00 | 82 | 1021.9 |
| 20260830152537 | 59 | 109 | 2.0 | 3.0 | 0.00 | 0.00 | 0.00 | 82 | 1021.9 |
| 20260830152037 | 59 | 255 | 2.0 | 2.0 | 0.00 | 0.00 | 0.00 | 82 | 1021.8 |
| 20260830151536 | 59 | 151 | 2.0 | 2.0 | 0.00 | 0.00 | 0.00 | 82 | 1021.7 |
| 20260830151031 | 59 | 71 | 3.0 | 5.0 | 0.00 | 0.00 | 0.00 | 81 | 1022.0 |
| 20260830150531 | 58 | 355 | 2.0 | 3.0 | 0.00 | 0.00 | 0.00 | 81 | 1021.9 |
| 20260830150026 | 58 | 30 | 5.0 | 6.0 | 0.00 | 0.00 | 0.00 | 81 | 1021.7 |
| 20260830145526 | 58 | 163 | 3.0 | 3.0 | 0.00 | 0.00 | 0.00 | 81 | 1021.8 |
| 20260830145021 | 58 | 322 | 0.0 | 1.0 | 0.00 | 0.00 | 0.00 | 80 | 1021.5 |
| 20260830144516 | 58 | 174 | 3.0 | 3.0 | 0.00 | 0.00 | 0.00 | 81 | 1021.6 |
| 20260830144012 | 58 | 240 | 1.0 | 1.0 | 0.00 | 0.00 | 0.00 | 81 | 1021.6 |
| 20260830143508 | 58 | 308 | 1.0 | 1.0 | 0.00 | 0.00 | 0.00 | 81 | 1021.7 |
| 20260830143006 | 58 | 117 | 3.0 | 3.0 | 0.00 | 0.00 | 0.00 | 82 | 1021.7 |
| 20260830142501 | 57 | 178 | 5.0 | 6.0 | 0.00 | 0.00 | 0.00 | 83 | 1021.8 |
| 20260830141955 | 57 | 121 | 1.0 | 2.0 | 0.00 | 0.00 | 0.00 | 83 | 1021.6 |
| 20260830141451 | 57 | 265 | 1.0 | 2.0 | 0.00 | 0.00 | 0.00 | 84 | 1021.6 |
| 20260830140946 | 57 | 142 | 1.0 | 2.0 | 0.00 | 0.00 | 0.00 | 87 | 1021.5 |
| 20260830140441 | 56 | 157 | 1.0 | 2.0 | 0.00 | 0.00 | 0.00 | 86 | 1021.3 |
| 20260830135941 | 57 | 269 | 1.0 | 1.0 | 0.00 | 0.00 | 0.00 | 86 | 1021.7 |
| 20260830135436 | 57 | 258 | 1.0 | 1.0 | 0.00 | 0.00 | 0.00 | 84 | 1021.6 |
| 20260830134932 | 57 | 354 | 0.0 | 0.0 | 0.00 | 0.00 | 0.00 | 85 | 1021.6 |
| 20260830134427 | 57 | 149 | 1.0 | 2.0 | 0.00 | 0.00 | 0.00 | 84 | 1021.4 |
| 20260830133922 | 57 | 73 | 1.0 | 1.0 | 0.00 | 0.00 | 0.00 | 85 | 1021.5 |
| 20260830133418 | 56 | 109 | 1.0 | 1.0 | 0.00 | 0.00 | 0.00 | 85 | 1021.6 |
| 20260830132913 | 56 | 36 | 1.0 | 1.0 | 0.00 | 0.00 | 0.00 | 86 | 1021.6 |
| 20260830132409 | 56 | 74 | 1.0 | 1.0 | 0.00 | 0.00 | 0.00 | 86 | 1021.4 |
| 20260830131908 | 56 | 214 | 0.0 | 1.0 | 0.00 | 0.00 | 0.00 | 86 | 1021.4 |
| 20260830131408 | 56 | 345 | 1.0 | 2.0 | 0.00 | 0.00 | 0.00 | 86 | 1021.4 |
| 20260830130902 | 56 | 348 | 0.0 | 0.0 | 0.00 | 0.00 | 0.00 | 86 | 1021.5 |
| 20260830130358 | 56 | 301 | 0.0 | 0.0 | 0.00 | 0.00 | 0.00 | 85 | 1021.5 |
| 20260830125857 | 56 | 119 | 3.0 | 3.0 | 0.00 | 0.00 | 0.00 | 85 | 1021.5 |
| 20260830125353 | 56 | 157 | 1.0 | 1.0 | 0.00 | 0.00 | 0.00 | 85 | 1021.3 |
| 20260830124850 | 56 | 268 | 1.0 | 2.0 | 0.00 | 0.00 | 0.00 | 84 | 1021.4 |
| 20260830124345 | 57 | 93 | 2.0 | 2.0 | 0.00 | 0.00 | 0.00 | 84 | 1021.4 |
| 20260830123842 | 56 | 191 | 2.0 | 2.0 | 0.00 | 0.00 | 0.00 | 84 | 1021.5 |
| 20260830123338 | 57 | 56 | 1.0 | 2.0 | 0.00 | 0.00 | 0.00 | 84 | 1021.4 |
| 20260830122835 | 57 | 194 | 2.0 | 2.0 | 0.00 | 0.00 | 0.00 | 84 | 1021.6 |
| 20260830122330 | 57 | 14 | 0.0 | 0.0 | 0.00 | 0.00 | 0.00 | 83 | 1021.5 |
| 20260830121826 | 57 | 218 | 1.0 | 1.0 | 0.00 | 0.00 | 0.00 | 83 | 1021.6 |
| 20260830121325 | 57 | 15 | 3.0 | 3.0 | 0.00 | 0.00 | 0.00 | 83 | 1021.3 |
| 20260830120820 | 57 | 359 | 0.0 | 0.0 | 0.00 | 0.00 | 0.00 | 83 | 1021.5 |
| 20260830120316 | 57 | 198 | 3.0 | 5.0 | 0.00 | 0.00 | 0.00 | 84 | 1021.7 |
| 20260830115812 | 57 | 163 | 3.0 | 3.0 | 0.00 | 0.00 | 0.00 | 82 | 1021.5 |
| 20260830115308 | 57 | 149 | 3.0 | 6.0 | 0.00 | 0.00 | 0.00 | 81 | 1021.5 |
| 20260830114804 | 57 | 70 | 1.0 | 2.0 | 0.00 | 0.00 | 0.00 | 81 | 1021.5 |
| 20260830114259 | 57 | 283 | 0.0 | 0.0 | 0.00 | 0.00 | 0.00 | 81 | 1021.3 |
| 20260830113754 | 57 | 138 | 3.0 | 3.0 | 0.00 | 0.00 | 0.00 | 81 | 1021.6 |
| 20260830113249 | 57 | 338 | 1.0 | 1.0 | 0.00 | 0.00 | 0.00 | 80 | 1021.6 |
| 20260830112740 | 57 | 100 | 1.0 | 2.0 | 0.00 | 0.00 | 0.00 | 81 | 1021.4 |
| 20260830112236 | 58 | 345 | 0.0 | 1.0 | 0.00 | 0.00 | 0.00 | 80 | 1021.4 |
| 20260830111731 | 58 | 341 | 0.0 | 0.0 | 0.00 | 0.00 | 0.00 | 80 | 1021.6 |
| 20260830111227 | 58 | 287 | 0.0 | 0.0 | 0.00 | 0.00 | 0.00 | 80 | 1021.3 |
| 20260830110726 | 58 | 51 | 1.0 | 1.0 | 0.00 | 0.00 | 0.00 | 79 | 1021.6 |
| 20260830110223 | 58 | 169 | 6.0 | 10.0 | 0.00 | 0.00 | 0.00 | 80 | 1021.3 |
| 20260830105722 | 58 | 34 | 2.0 | 2.0 | 0.00 | 0.00 | 0.00 | 78 | 1021.2 |
| 20260830105218 | 58 | 60 | 3.0 | 5.0 | 0.00 | 0.00 | 0.00 | 79 | 1021.6 |
| 20260830104715 | 58 | 49 | 3.0 | 5.0 | 0.00 | 0.00 | 0.00 | 80 | 1021.1 |
| 20260830104211 | 58 | 115 | 2.0 | 2.0 | 0.00 | 0.00 | 0.00 | 80 | 1021.1 |
| 20260830103710 | 57 | 179 | 5.0 | 6.0 | 0.00 | 0.00 | 0.00 | 82 | 1021.0 |
| 20260830103206 | 58 | 146 | 2.0 | 2.0 | 0.00 | 0.00 | 0.00 | 81 | 1021.2 |
| 20260830102704 | 58 | 143 | 3.0 | 5.0 | 0.00 | 0.00 | 0.00 | 81 | 1021.1 |
| 20260830102200 | 57 | 344 | 1.0 | 1.0 | 0.00 | 0.00 | 0.00 | 81 | 1021.2 |
| 20260830101655 | 57 | 40 | 4.0 | 5.0 | 0.00 | 0.00 | 0.00 | 81 | 1021.2 |
| 20260830101150 | 57 | 16 | 4.0 | 6.0 | 0.00 | 0.00 | 0.00 | 80 | 1021.3 |
| 20260830100645 | 58 | 138 | 2.0 | 3.0 | 0.00 | 0.00 | 0.00 | 80 | 1021.1 |
| 20260830100139 | 57 | 6 | 3.0 | 5.0 | 0.00 | 0.00 | 0.00 | 80 | 1021.3 |
| 20260830095638 | 58 | 70 | 3.0 | 3.0 | 0.00 | 0.00 | 0.00 | 81 | 1020.9 |
| 20260830095135 | 57 | 141 | 4.0 | 5.0 | 0.00 | 0.00 | 0.00 | 81 | 1021.0 |
| 20260830094630 | 58 | 175 | 6.0 | 7.0 | 0.00 | 0.00 | 0.00 | 80 | 1020.9 |
| 20260830094126 | 58 | 106 | 1.0 | 2.0 | 0.00 | 0.00 | 0.00 | 79 | 1021.1 |
| 20260830093620 | 58 | 108 | 2.0 | 2.0 | 0.00 | 0.00 | 0.00 | 80 | 1020.9 |
| 20260830093117 | 58 | 328 | 2.0 | 3.0 | 0.00 | 0.00 | 0.00 | 80 | 1020.8 |
| 20260830092612 | 58 | 141 | 3.0 | 3.0 | 0.00 | 0.00 | 0.00 | 80 | 1020.8 |
| 20260830092109 | 58 | 183 | 5.0 | 6.0 | 0.00 | 0.00 | 0.00 | 80 | 1021.1 |
| 20260830091604 | 58 | 19 | 2.0 | 3.0 | 0.00 | 0.00 | 0.00 | 79 | 1021.2 |
| 20260830091103 | 58 | 325 | 1.0 | 2.0 | 0.00 | 0.00 | 0.00 | 79 | 1021.2 |
| 20260830090557 | 58 | 344 | 3.0 | 5.0 | 0.00 | 0.00 | 0.00 | 79 | 1021.1 |
| 20260830090053 | 58 | 287 | 1.0 | 1.0 | 0.00 | 0.00 | 0.00 | 80 | 1021.1 |
| 20260830085547 | 57 | 337 | 0.0 | 0.0 | 0.00 | 0.00 | 0.00 | 81 | 1020.9 |
| 20260830085043 | 57 | 187 | 1.0 | 3.0 | 0.00 | 0.00 | 0.00 | 80 | 1021.1 |
| 20260830084539 | 58 | 324 | 2.0 | 2.0 | 0.00 | 0.00 | 0.00 | 80 | 1021.0 |
| 20260830084038 | 58 | 325 | 3.0 | 5.0 | 0.00 | 0.00 | 0.00 | 79 | 1021.1 |
| 20260830083533 | 58 | 137 | 5.0 | 7.0 | 0.00 | 0.00 | 0.00 | 78 | 1021.2 |
| 20260830083033 | 58 | 169 | 5.0 | 6.0 | 0.00 | 0.00 | 0.00 | 77 | 1021.0 |
| 20260830082529 | 59 | 337 | 2.0 | 3.0 | 0.00 | 0.00 | 0.00 | 77 | 1020.7 |
| 20260830082024 | 59 | 265 | 0.0 | 1.0 | 0.00 | 0.00 | 0.00 | 77 | 1020.9 |
| 20260830081520 | 59 | 177 | 3.0 | 3.0 | 0.00 | 0.00 | 0.00 | 76 | 1020.8 |
| 20260830081019 | 59 | 215 | 4.0 | 5.0 | 0.00 | 0.00 | 0.00 | 76 | 1020.8 |
| 20260830080515 | 59 | 269 | 2.0 | 3.0 | 0.00 | 0.00 | 0.00 | 75 | 1020.7 |
| 20260830080015 | 59 | 140 | 3.0 | 3.0 | 0.00 | 0.00 | 0.00 | 76 | 1020.7 |
| 20260830075509 | 59 | 315 | 3.0 | 3.0 | 0.00 | 0.00 | 0.00 | 75 | 1021.0 |
| 20260830075005 | 59 | 10 | 7.0 | 7.0 | 0.00 | 0.00 | 0.00 | 76 | 1020.9 |
| 20260830074501 | 59 | 333 | 1.0 | 2.0 | 0.00 | 0.00 | 0.00 | 76 | 1021.0 |
| 20260830073956 | 58 | 42 | 5.0 | 6.0 | 0.00 | 0.00 | 0.00 | 76 | 1020.8 |
| 20260830073452 | 58 | 59 | 3.0 | 3.0 | 0.00 | 0.00 | 0.00 | 78 | 1020.6 |
| 20260830072946 | 58 | 117 | 4.0 | 6.0 | 0.00 | 0.00 | 0.00 | 79 | 1020.5 |